Location: M?czywoda
(50.3667°N, 19.4167°E)
Time: 19:18:13
(UTC+00:00)

Daily predictions for brighter satellites

Satellite Brightness Start Highest point End
(mag) Time Altitude Azimuth Time Altitude Azimuth Time Altitude Azimuth
Cosmos 2100 Rocket 4.3 15:18:36 10° SSW 15:24:46 73° WNW 15:30:56 10° N
UNK 4.4 15:23:32 10° NNE 15:27:49 36° E 15:32:04 10° SSE
Cosmos 2221 Rocket 4.3 15:24:36 10° NNW 15:29:01 59° W 15:33:23 10° S
Meteor 1-28 Rocket 3.0 15:29:18 10° NNE 15:32:38 58° ESE 15:35:58 10° S
SJ-12 4.3 15:32:45 10° SE 15:36:12 34° ENE 15:39:39 10° N
Cosmos 1269 Rocket 4.0 15:33:05 10° SSW 15:38:19 73° ESE 15:43:36 10° NNE
CORIOLIS 4.1 15:34:19 10° SSE 15:39:36 65° ENE 15:44:55 10° N
IRS-1C 4.2 15:36:14 10° SE 15:41:24 54° ENE 15:46:35 10° N
BREEZE-M DEB (TANK) 3.5 15:44:42 10° SSW 15:46:49 30° SE 15:50:40 11° ENE
Cosmos 1943 Rocket 2.7 15:42:50 10° S 15:47:59 39° ESE 15:53:07 10° NE
Cosmos 2233 Rocket 4.0 15:41:51 10° S 15:48:07 77° E 15:54:28 10° NNE
Thor Agena Rocket 3.7 15:43:59 10° SSE 15:49:16 85° WSW 15:54:35 10° NNW
ATLAS 2AS CENTAUR R/B 3.6 15:43:24 10° NW 15:49:23 31° NNE 15:54:48 12° ENE
Cosmos 1725 Rocket 4.3 15:44:05 10° SSW 15:50:21 76° W 15:56:43 10° N
COSMO-SKYMED 1 4.2 15:50:28 12° ENE 15:51:12 12° E 15:52:58 10° ESE
ATLAS CENTAUR R/B 3.0 15:49:00 10° W 15:51:38 20° NNW 15:54:16 10° NNE
Cosmos 841 Rocket 4.4 15:47:46 10° N 15:52:12 27° NE 15:56:36 10° ESE
Resurs 01 Rocket 3.6 15:52:47 10° NE 15:52:47 10° NE 15:53:03 10° NE
Cosmos 2251 Rocket 4.4 15:48:58 10° SSE 15:53:25 28° E 15:57:54 10° NE
Cosmos 1782 Rocket 3.6 15:49:22 10° S 15:53:49 89° E 15:58:15 10° N
Cosmos 2061 Rocket 4.0 15:49:11 10° S 15:55:28 78° E 16:01:43 10° NNE
Cosmos 2082 Rocket 2.4 15:50:07 10° NNW 15:55:35 50° NE 16:01:02 10° SE
Cosmos 1300 Rocket 3.7 15:51:59 10° SSW 15:56:22 78° W 16:00:46 10° N
Cosmos 2058 3.5 15:54:14 10° N 15:57:51 32° ENE 16:01:27 10° SE
Cosmos 921 Rocket 4.5 15:55:50 10° SW 15:59:54 37° WNW 16:04:04 10° N
Cosmos 2278 Rocket 2.5 15:55:44 10° S 16:01:05 46° ESE 16:06:28 10° NE
Cosmos 1346 Rocket 4.5 16:03:02 10° NNE 16:04:11 14° NE 16:04:11 14° NE
Cosmos 468 Rocket 4.0 16:01:41 10° NNW 16:06:50 56° ENE 16:11:53 10° SE
MOS 1 Rocket 3.4 16:03:00 10° SE 16:07:09 47° ENE 16:11:32 10° N
USA 215 3.6 16:02:54 10° SE 16:09:25 71° SW 16:15:59 10° WNW
Cosmos 1975 Rocket 3.3 16:05:54 10° NNW 16:10:15 71° W 16:14:36 10° S
SAR-Lupe-1 4.0 16:06:42 10° SSE 16:10:16 88° ENE 16:13:53 10° NNW
ARIANE 5 R/B 2.5 16:05:56 10° SSE 16:10:55 90° SSE 16:15:58 10° NNW
AQUARIUS 4.0 16:07:36 10° SSE 16:11:58 68° ENE 16:16:22 10° N
Cosmos 1602 3.4 16:09:32 10° N 16:12:28 41° ENE 16:15:23 10° SSE
ATLAS 5 CENTAUR R/B 3.9 16:09:52 10° WNW 16:13:48 31° WSW 16:18:30 10° S
NOSS 3 (A) 3.2 16:14:17 10° SW 16:15:42 58° S 16:15:42 58° S
CZ-2D R/B 3.9 16:12:11 10° SE 16:16:03 39° ENE 16:19:59 10° N
Cosmos 2344 4.0 16:12:03 10° NW 16:19:27 53° NNE 16:28:28 11° ESE
SAR-Lupe-4 4.1 16:16:31 10° S 16:20:04 62° WSW 16:23:38 10° NNW
Cosmos 1190 Rocket 4.5 16:16:24 10° S 16:21:18 40° ESE 16:25:14 15° NE
Cosmos 1862 3.4 16:18:03 10° N 16:21:29 39° ENE 16:24:55 10° SE
PSLV R/B 4.1 16:18:01 10° SE 16:21:36 31° ENE 16:25:11 10° N
Cosmos 2151 Rocket 4.1 16:19:20 10° SSE 16:23:27 37° E 16:27:37 10° NNE
Geosat FO 3.9 16:24:49 14° SE 16:27:10 63° ENE 16:30:02 10° NNW
USA 281 4.1 16:24:36 20° E 16:27:40 28° NE 16:33:03 10° NNW
CZ-2D R/B 3.5 16:26:17 10° S 16:29:23 53° W 16:32:29 10° NNW
ISS -3.7 16:26:27 10° WSW 16:29:45 65° SSE 16:30:57 35° E
SKYMED 2 4.0 16:26:37 13° NNE 16:30:17 41° E 16:34:24 10° S
Okean 1 Rocket 3.8 16:26:38 10° SSE 16:30:24 29° E 16:31:18 27° ENE
COSMOS 2406 3.3 16:25:31 10° NNW 16:31:05 52° NE 16:36:38 10° SE
Cosmos 407 Rocket 3.4 16:26:27 10° SSW 16:31:39 88° WNW 16:36:49 10° NNE
Cosmos 1812 1.8 16:30:13 10° S 16:33:06 74° E 16:34:33 26° NNE
Cosmos 1954 Rocket 4.4 16:28:50 10° S 16:33:45 41° ESE 16:36:42 21° NE
IRS-P3 4.2 16:29:04 10° SSE 16:34:24 82° WSW 16:39:46 10° NNW
Sich 1 Rocket 4.2 16:31:44 10° SSE 16:35:49 34° E 16:37:30 25° NE
Cosmos 2026 Rocket 4.4 16:30:25 10° N 16:36:02 37° ENE 16:41:40 10° SE
SL-19 R/B 4.2 16:31:23 10° SE 16:36:24 52° ENE 16:41:29 10° N
Cosmos 1072 Rocket 4.4 16:33:04 10° S 16:39:05 62° E 16:45:08 10° NNE
BlueWalker 3 4.3 16:41:48 10° SSE 16:41:51 10° SSE 16:41:51 10° SSE
Cosmos 44 Rocket 3.2 16:40:07 10° SW 16:44:54 81° SE 16:47:37 27° NE
Cosmos 540 Rocket 4.4 16:40:07 10° NNW 16:45:05 50° WSW 16:50:00 10° S
SPOT 1/Viking Rocket 3.4 16:41:07 10° SSE 16:46:17 79° ENE 16:51:30 10° NNW
SJ 16-02 1.4 16:42:26 10° S 16:46:36 49° ESE 16:47:54 36° ENE
YAOGAN 1 2.5 16:43:57 10° SSE 16:48:07 60° ENE 16:52:21 10° N
Cosmos 1869 4.0 16:44:50 10° SSW 16:48:13 45° WNW 16:51:37 10° N
Cosmos 2297 Rocket 4.3 16:49:57 10° N 16:50:33 10° NNE 16:51:10 10° NNE
SL-16 R/B 4.0 16:45:48 10° N 16:51:25 36° WNW 16:57:00 10° WSW
Meteor 2-3 Rocket 3.8 16:48:45 10° N 16:54:20 52° ENE 16:59:50 10° SSE
Spot 4 Rocket 3.9 16:52:08 10° SSE 16:57:14 84° ENE 17:02:22 10° NNW
Nadezhda 4 Rocket 3.9 16:52:15 10° N 16:58:36 86° E 17:04:50 10° S
Aureole 3 Rocket 3.2 16:58:15 10° SSW 17:01:12 47° WNW 17:03:44 15° N
Resurs 1-3 3.4 16:58:10 10° SSE 17:02:28 78° ENE 17:06:47 10° N
CZ-4C R/B 3.8 16:59:42 10° WNW 17:04:03 25° N 17:06:53 18° NNE
Cosmos 1627 Rocket 4.4 17:02:44 10° N 17:08:48 59° ENE 17:14:54 10° SSE
Cosmos 304 Rocket 3.6 17:04:55 10° S 17:09:36 65° ESE 17:10:27 54° ENE
Cosmos 1400 Rocket 2.6 17:06:49 10° SSW 17:10:37 87° WNW 17:11:08 66° N
Cosmos 371 Rocket 3.2 17:06:30 10° S 17:11:15 65° ESE 17:12:04 54° ENE
Cosmos 1536 Rocket 4.0 17:07:44 10° NNW 17:12:08 62° W 17:16:27 10° S
Cosmos 2195 Rocket 4.4 17:06:10 10° N 17:12:31 76° E 17:18:51 10° SSE
Helios 1A Rocket 3.9 17:16:48 29° SSW 17:16:48 29° SSW 17:18:34 10° SSW
Okean 2 Rocket 3.0 17:13:32 10° SSW 17:17:56 83° W 17:20:03 30° N
NOAA 6 4.0 17:20:18 10° SSE 17:25:27 86° WSW 17:30:38 10° NNW
Geosat 3.8 17:25:22 55° SE 17:26:29 83° ENE 17:31:30 10° NNW
COSMO-SKYMED 1 2.4 17:26:49 74° NNW 17:27:04 78° WNW 17:31:11 10° SSW
Resurs 01 Rocket 3.0 17:30:11 27° N 17:30:11 27° N 17:32:16 10° N
Cosmos 1943 Rocket 3.2 17:26:20 10° WSW 17:31:40 43° NW 17:35:17 19° NNE
Cosmos 841 Rocket 4.0 17:29:12 10° NNW 17:34:23 60° WSW 17:38:54 13° S
Cosmos 2251 Rocket 4.3 17:30:12 10° SW 17:35:21 51° WNW 17:38:36 22° N
Cosmos 2082 Rocket 3.8 17:34:31 10° NW 17:39:29 33° WSW 17:44:26 10° SSW
BREEZE-M DEB (TANK) 2.9 17:36:24 10° W 17:39:34 81° S 17:39:49 77° SE
ATLAS 2AS CENTAUR R/B 2.5 17:34:38 10° NW 17:41:26 69° NE 17:42:14 63° E
Cosmos 2278 Rocket 3.4 17:40:01 10° WSW 17:45:16 38° NW 17:48:33 21° N
Cosmos 1634 Rocket 4.0 17:44:47 10° S 17:57:50 - NNE 17:50:01 61° SSE
Meteor 2-1 Rocket 4.4 17:46:29 10° SSW 17:52:24 75° WNW 17:57:32 15° N
Cosmos 2369 Rocket 4.0 17:48:47 10° S 17:50:09 18° S 17:50:09 18° S
ISS -0.6 18:03:13 10° W 18:03:52 15° W 18:03:52 15° W
Cosmos 1656 Rocket 4.0 18:03:24 10° SW 18:07:59 60° WSW 18:07:59 60° WSW
USA 281 3.1 18:11:29 88° SW 18:11:30 89° WSW 18:18:09 10° NNW
SJ 16-02 3.6 18:21:32 10° WSW 18:24:28 22° WNW 18:24:28 22° WNW
Cosmos 2344 4.4 18:26:17 10° NW 18:34:09 57° SW 18:38:34 35° S
Cosmos 2297 Rocket 4.5 18:32:11 10° NNW 18:33:09 14° N 18:33:09 14° N
CZ-4C R/B 4.2 18:48:57 10° NW 18:51:49 24° NNW 18:51:49 24° NNW
ATLAS 2AS CENTAUR R/B 4.3 19:25:59 10° NW 19:29:41 27° W 19:29:41 27° W
